Dewpoint
63 64 64 64 63 62 63 64 64 64 64 64 64 64 64 63 63 63 63 62 62 62 63 62 60 60 60 60 60 60 60 62 63 63 64 64 64 65 68 68 68 68 65 64 63 62 61 60 60 61 61 60 60 60 60 66 65 65 64 63 62 62 61 61 61 60 60 60 60 59 59 59 59 58 58 58 57 57 57 57 57 57 57 57 57
63 63 63 63 63 62 63 63 64 64 64 63 64 64 64 64 63 63 62 62 62 62 61 59 58 59 59 60 60 60 61 62 62 63 64 64 65 65 68 68 67 67 67 65 63 62 62 61 60 60 60 60 60 60 59 60 64 66 65 64 63 62 62 61 61 60 60 60 60 59 59 59 59 58 58 58 57 57 57 56 56 56 56 56 56
63 63 62 62 62 61 61 62 63 63 63 62 63 63 63 64 63 63 62 62 62 60 60 59 58 57 60 59 58 60 61 62 62 63 63 64 65 65 67 68 67 67 67 67 66 63 62 61 61 60 60 60 61 60 60 59 61 61 66 64 63 63 62 61 61 61 60 60 59 59 59 59 58 58 58 58 57 57 57 57 56 56 56 56 56
63 63 62 62 62 62 61 62 62 63 64 63 63 63 62 62 63 63 62 61 61 59 60 59 59 59 58 58 58 61 61 62 62 63 64 64 64 65 65 66 67 67 67 67 66 67 63 62 62 61 61 61 60 61 60 60 61 60 62 65 64 63 62 62 61 61 60 60 60 60 60 59 59 58 58 58 57 57 57 57 56 56 56 56 56
62 64 65 62 62 61 61 62 62 63 64 64 64 63 63 63 62 62 59 58 57 57 59 60 61 61 61 61 60 60 61 61 62 63 63 64 64 65 65 65 65 67 66 67 66 66 67 64 63 62 61 61 60 60 60 60 60 59 59 66 64 63 63 62 61 61 60 60 60 60 60 59 58 58 58 57 57 57 57 57 57 56 56 56 56
63 63 64 62 62 62 62 61 62 63 64 64 64 64 64 63 62 61 62 57 56 58 58 60 60 61 61 60 61 60 61 61 62 63 63 64 64 65 65 65 64 65 65 66 66 66 65 66 64 63 63 62 61 61 60 60 60 60 60 65 65 64 63 62 62 61 61 60 60 59 59 59 59 58 57 57 57 57 57 57 57 56 56 55 55
64 63 62 62 62 62 61 62 62 63 63 64 64 64 63 63 62 59 57 58 58 60 59 60 60 60 60 60 60 60 61 61 62 62 62 63 64 64 65 65 65 64 65 65 66 66 65 66 66 66 64 64 62 61 61 61 60 61 60 64 64 65 64 64 63 62 62 61 60 60 60 59 59 58 58 57 57 57 57 57 57 56 56 56 55
63 62 61 61 62 61 61 62 63 62 63 63 63 63 62 61 60 58 57 59 59 59 59 60 60 60 60 60 59 60 59 60 61 61 62 62 63 64 65 65 65 64 65 65 65 65 66 66 66 66 67 65 63 62 63 61 61 61 60 61 63 62 63 64 64 63 62 61 61 60 60 59 59 59 58 58 57 57 57 57 57 56 56 56 55
63 62 61 61 61 61 62 62 63 62 62 62 62 62 61 60 60 59 58 60 60 60 60 60 61 61 61 60 59 59 58 59 59 61 62 62 62 63 64 64 65 66 66 65 65 65 65 66 66 66 66 66 66 64 64 64 63 62 61 60 60 62 61 62 64 64 63 62 61 61 61 59 59 59 58 58 58 57 57 57 57 57 56 56 56
62 62 61 61 61 61 62 63 63 62 61 61 62 61 59 60 60 60 60 60 60 60 60 60 61 60 60 61 60 58 58 58 59 60 60 60 61 61 63 64 65 65 65 65 65 65 65 65 66 66 66 65 65 66 64 65 65 64 63 62 61 61 61 61 62 65 64 63 62 62 61 61 59 59 59 58 58 58 58 57 57 57 57 56 56
63 62 61 62 60 61 62 63 62 61 60 60 61 61 60 60 59 60 61 61 60 59 60 60 60 60 60 60 60 60 59 60 58 58 58 60 62 64 61 62 64 65 65 65 65 65 65 65 65 65 66 66 66 66 65 65 65 65 64 63 63 63 62 62 61 62 65 64 63 62 62 61 60 59 59 59 59 58 58 57 57 57 57 57 56
63 62 61 60 60 61 62 63 62 61 60 59 59 60 60 59 59 60 60 61 61 61 60 59 58 59 58 58 59 61 60 59 58 58 58 59 62 62 61 61 62 63 64 64 65 64 65 65 65 65 65 65 66 66 66 66 66 66 66 64 63 63 63 62 61 61 63 65 64 63 62 62 61 60 60 59 59 59 58 58 58 58 57 57 57
62 61 60 62 61 60 61 62 62 61 60 59 60 61 60 59 60 59 59 58 58 61 60 59 59 58 57 57 58 61 62 60 59 59 58 59 61 62 61 62 61 62 62 64 64 64 64 64 64 65 64 65 66 66 65 65 65 66 66 65 65 65 64 63 63 62 61 62 65 64 63 62 61 60 61 60 60 59 59 58 58 58 57 57 57
62 60 61 62 61 60 61 62 61 61 60 61 60 62 60 59 59 58 58 57 58 60 60 58 56 56 57 56 56 58 59 59 60 61 61 60 60 62 62 61 61 62 62 63 63 63 63 64 64 64 64 64 64 65 66 66 65 65 66 66 65 65 66 65 64 63 62 62 62 65 64 63 62 61 61 61 60 60 59 59 58 58 58 57 57
61 62 60 61 60 60 61 62 61 61 61 60 61 62 60 59 59 58 58 59 60 61 59 58 57 58 56 55 53 53 55 57 58 60 61 61 61 61 62 63 63 62 62 62 61 62 61 62 63 64 64 64 64 64 64 65 65 65 65 66 66 66 66 66 65 64 63 62 62 63 65 64 63 62 62 61 61 60 60 59 59 59 58 58 58
59 61 60 60 60 61 61 61 61 62 60 59 60 60 61 61 60 58 59 58 58 59 60 58 58 57 55 53 52 52 52 52 55 59 61 61 61 60 62 62 63 63 62 62 62 62 62 62 62 63 63 64 64 64 64 64 64 65 64 64 65 66 66 64 64 65 64 63 63 62 65 64 64 63 63 62 62 61 61 60 60 59 59 58 58
56 58 61 60 60 59 59 59 60 61 60 60 59 60 59 60 60 60 59 59 58 59 60 60 59 59 58 54 52 52 52 55 55 58 60 61 61 61 62 62 62 62 62 62 62 61 61 62 62 61 61 62 62 63 63 63 64 64 65 65 65 65 65 66 65 65 64 64 64 63 64 65 64 64 63 63 62 62 61 61 60 60 60 59 59
53 56 59 61 59 58 58 59 60 60 60 59 59 59 59 60 60 61 60 60 60 59 59 60 59 59 58 57 55 53 53 56 55 53 56 59 60 61 62 62 62 62 61 61 61 61 62 62 62 63 62 62 62 62 63 63 64 64 64 64 62 64 64 64 65 66 66 65 65 65 64 66 65 65 64 63 63 63 62 62 61 61 61 60 60
53 54 57 58 56 57 58 58 59 59 60 58 58 58 60 61 61 61 61 60 60 59 59 60 60 60 59 59 60 59 59 56 53 53 53 55 58 58 59 61 61 61 61 61 61 62 62 62 62 63 64 64 64 63 62 62 63 63 63 63 62 60 60 60 63 65 65 65 65 64 65 64 64 65 65 64 64 63 63 63 62 62 61 61 60
53 53 55 56 55 55 55 56 56 57 58 57 58 59 59 59 59 59 60 60 60 60 59 60 58 58 59 59 58 58 58 57 56 54 53 53 54 57 58 57 55 55 58 60 61 62 61 62 63 64 64 64 64 63 63 63 63 63 63 60 59 59 58 58 57 57 61 64 64 64 64 65 64 64 65 65 64 64 64 63 63 63 62 62 61
51 52 53 54 56 53 54 54 55 55 56 54 54 54 55 55 56 56 57 57 58 59 60 59 58 58 58 58 58 57 55 55 56 56 54 53 51 52 51 55 51 51 53 56 60 61 62 63 64 64 64 64 64 64 64 64 64 63 62 59 59 58 58 57 55 53 54 59 62 64 65 64 64 64 64 64 64 64 64 64 64 63 63 63 62
50 51 51 52 52 53 52 53 53 55 55 52 52 52 52 52 52 53 54 53 53 55 57 56 57 58 58 57 56 56 53 53 53 53 51 52 50 46 49 46 45 47 50 52 51 57 60 62 61 62 62 62 63 64 64 63 63 64 61 58 59 58 58 57 52 53 55 56 60 62 64 65 64 64 64 64 64 64 64 64 64 64 64 64 63
50 51 51 52 53 54 52 53 54 56 53 51 51 50 50 51 51 50 50 50 50 50 51 52 54 55 56 56 56 54 52 51 48 49 49 47 50 50 47 46 43 45 47 48 45 42 43 50 52 52 55 58 62 63 63 63 63 61 60 59 59 58 59 57 54 53 54 57 59 61 62 63 64 64 64 64 64 64 64 65 65 64 64 64 64
49 50 50 51 52 51 53 51 52 51 51 51 51 50 51 50 50 50 49 50 50 50 48 48 49 49 49 49 49 50 50 50 50 49 48 48 50 48 50 52 42 44 45 50 44 42 42 42 42 44 45 47 52 58 59 59 59 58 60 60 59 58 57 58 55 54 52 55 57 60 62 63 63 63 64 64 64 64 64 65 65 65 64 64 64
48 48 49 49 51 50 50 50 50 51 51 51 51 51 50 50 49 49 49 48 48 48 47 47 48 47 47 48 48 48 48 49 49 47 47 47 47 45 44 45 45 44 44 45 45 44 43 42 42 43 43 44 45 49 53 54 55 54 57 58 56 55 55 55 55 54 53 52 53 57 59 61 63 64 64 64 63 64 64 64 62 58 58 60 62
47 48 48 50 50 51 50 50 50 50 51 50 50 50 50 49 49 48 48 48 48 48 47 47 47 47 48 47 47 47 48 48 47 47 46 46 45 44 45 43 45 43 44 43 43 42 43 43 42 42 43 43 45 47 48 49 51 51 52 54 52 49 50 50 51 51 50 50 50 53 54 56 58 60 61 61 60 60 60 57 56 56 55 55 55
47 48 51 49 49 49 49 49 50 50 51 51 51 50 50 49 49 49 49 48 48 48 47 47 47 46 47 47 48 47 47 47 47 47 47 47 46 45 44 41 41 42 43 41 42 42 43 44 42 42 43 47 46 47 46 46 47 49 49 48 48 48 48 48 48 49 49 48 48 48 49 51 52 53 53 54 53 53 55 57 57 54 54 54 54
48 49 49 49 48 49 49 49 49 50 50 49 49 49 49 49 49 48 48 49 47 46 46 46 46 47 47 47 47 46 47 47 47 47 47 47 47 46 44 42 40 37 41 41 43 41 42 41 42 42 42 44 44 45 44 44 45 47 47 47 47 47 47 47 47 47 47 47 47 46 47 48 49 50 51 52 54 55 55 56 55 54 52 54 56
49 51 49 48 49 49 48 48 49 49 49 49 48 48 49 49 48 47 47 47 47 46 46 46 46 46 46 46 46 46 47 48 47 47 47 47 47 47 45 43 42 39 40 39 41 44 40 42 39 40 41 41 44 42 41 41 46 44 43 45 47 47 47 47 47 46 47 46 45 46 45 46 47 49 51 50 52 52 52 51 52 52 53 54 55
51 52 49 49 49 53 48 48 48 49 49 48 48 48 49 48 48 47 47 48 47 47 48 46 46 47 47 45 45 45 46 45 46 47 47 46 46 47 46 45 45 42 42 41 41 45 43 44 43 39 40 39 39 41 40 40 47 42 42 42 44 46 46 46 46 46 46 45 44 44 44 45 46 47 49 49 49 50 49 49 50 50 51 53 53
52 51 49 49 49 49 48 48 48 49 48 49 49 49 48 48 49 48 47 47 46 46 47 46 46 46 45 45 45 45 45 45 45 46 47 47 46 46 46 46 46 45 43 42 39 41 45 44 44 42 41 39 37 39 40 40 43 42 43 44 41 45 45 44 46 46 46 45 44 44 44 45 45 46 46 49 49 49 49 49 50 50 50 50 51
51 50 49 49 49 49 48 48 48 48 48 49 48 48 47 48 48 47 47 47 47 47 47 47 45 45 45 44 45 45 45 44 44 44 44 45 45 44 44 44 44 45 45 42 41 40 44 45 44 42 40 42 36 35 37 36 40 43 40 42 42 44 40 42 44 46 46 45 44 43 44 44 43 44 44 45 44 46 46 47 49 49 48 47 48
51 51 50 49 49 49 48 50 48 48 48 48 48 48 48 47 47 47 46 46 46 46 48 46 46 46 46 44 45 45 45 44 43 43 43 43 44 45 44 44 43 44 43 43 41 41 43 45 44 40 39 40 34 35 35 38 40 39 40 41 42 42 40 41 41 44 45 44 43 43 43 42 42 42 41 42 43 44 44 45 46 47 47 45 46
51 51 51 51 51 50 49 49 48 48 49 49 48 48 48 47 48 48 47 46 46 46 46 46 46 47 46 45 44 45 44 43 44 41 41 41 40 40 42 42 41 42 44 43 43 42 37 43 42 38 35 40 33 34 37 39 40 39 36 37 38 38 40 40 39 41 45 44 43 43 42 42 42 41 41 41 42 43 43 43 42 43 45 44 44
52 51 52 52 52 51 50 51 50 50 49 49 48 48 48 47 47 47 48 46 46 46 45 45 45 46 45 46 44 46 45 44 44 44 44 41 40 39 41 41 41 42 40 41 41 39 36 36 42 33 36 37 37 33 35 36 38 36 36 37 36 37 38 39 39 38 43 44 43 42 42 41 41 41 40 41 41 42 41 42 42 42 43 44 44
51 52 53 53 53 53 52 52 52 50 50 50 49 48 49 48 48 47 48 47 47 46 46 45 45 46 46 44 44 46 45 44 44 44 43 42 41 40 41 41 41 40 41 40 40 40 39 31 35 33 34 36 34 33 35 35 35 35 36 37 37 37 38 37 38 37 41 44 43 42 42 41 40 40 40 40 41 41 41 41 41 41 42 43 43
53 53 53 54 53 53 53 53 52 51 51 50 50 50 49 49 48 48 48 48 48 47 47 45 47 45 46 45 44 46 44 44 44 43 42 40 38 40 39 39 39 40 39 38 36 35 34 33 35 40 38 34 34 35 35 34 34 35 36 36 36 36 38 38 38 37 42 43 42 42 41 40 40 40 40 40 40 40 40 41 41 41 42 42 42
54 54 53 53 54 54 54 53 53 52 52 51 50 51 50 49 49 48 49 48 48 47 47 46 46 45 45 45 45 46 44 44 44 44 41 40 38 39 39 38 37 37 38 37 37 37 34 34 35 35 37 36 35 36 35 37 37 35 35 35 36 36 37 38 38 37 40 40 41 39 41 39 39 39 40 40 40 40 40 41 41 41 42 42 42
54 53 53 53 53 53 54 54 54 54 53 52 52 52 51 50 50 49 48 48 48 48 47 47 46 46 45 45 46 47 45 44 44 43 42 40 40 38 39 39 36 37 37 37 36 36 35 35 36 36 35 37 36 35 33 36 36 36 37 36 35 34 38 38 37 37 40 42 40 39 38 39 40 38 39 39 39 40 41 40 41 41 42 42 41
54 54 53 53 53 53 54 54 54 54 54 53 53 52 52 52 51 50 49 48 48 48 48 47 48 47 46 46 46 47 46 45 45 44 42 40 39 38 39 38 38 38 37 37 37 35 35 36 35 34 35 36 35 37 35 35 35 35 36 37 36 36 37 38 38 37 39 40 39 37 37 38 37 38 38 39 39 40 41 40 40 41 42 41 41
54 54 54 53 53 53 53 52 53 53 53 53 53 53 52 52 51 50 49 49 48 48 48 47 48 48 47 46 46 46 48 48 46 45 43 41 38 37 40 38 38 38 38 38 37 36 35 35 35 36 34 34 34 35 35 36 36 35 38 38 37 37 36 36 35 37 40 37 36 34 33 36 34 36 35 36 37 40 39 40 40 40 40 40 40
52 52 53 52 52 52 52 52 52 52 52 53 52 49 49 52 52 51 50 50 50 49 49 49 48 48 47 47 48 49 48 48 45 42 40 39 39 38 36 38 38 38 38 37 36 35 35 35 34 35 34 34 34 36 36 37 37 38 37 37 36 36 36 35 35 39 40 36 34 33 32 34 35 35 36 35 38 40 39 39 38 39 40 40 41
52 52 52 51 52 52 52 52 52 52 52 52 48 46 45 46 51 51 51 51 50 50 49 49 48 49 47 46 47 49 48 47 45 40 38 37 37 37 38 38 38 37 36 36 37 38 41 36 36 36 35 34 35 36 37 36 38 38 37 37 36 35 33 32 30 34 39 35 34 33 33 34 35 33 33 35 37 39 38 38 38 40 40 40 41
51 51 50 51 51 51 51 51 51 52 52 50 46 45 44 43 46 51 51 50 50 50 50 49 49 49 49 48 46 48 47 47 44 40 38 37 37 37 37 37 37 37 38 39 38 37 38 38 38 38 38 35 35 36 37 38 37 37 36 35 34 34 33 32 32 31 35 36 33 33 33 34 34 34 35 35 36 38 38 38 39 39 40 40 40
51 51 51 50 50 50 50 51 52 52 52 47 42 42 41 42 41 46 51 51 51 50 50 50 49 49 49 48 46 47 45 46 43 35 33 36 37 37 38 38 38 37 35 36 38 39 38 37 38 38 36 37 37 38 39 39 39 35 34 32 33 33 33 32 31 31 33 36 35 33 31 33 34 33 33 35 36 37 37 38 38 39 39 40 40
48 48 50 50 50 50 50 50 51 49 49 46 41 41 40 40 40 42 49 50 50 50 50 50 49 49 48 47 46 45 43 43 37 34 34 36 39 37 38 39 39 40 38 36 36 37 39 39 38 39 39 38 37 39 40 39 37 34 33 32 33 32 33 32 34 34 35 35 34 33 32 32 33 33 33 34 35 37 38 38 38 38 39 40 40
44 44 44 45 46 47 47 47 47 48 47 41 38 38 39 39 39 40 47 47 48 48 48 48 48 48 48 47 46 44 42 40 38 36 36 36 37 38 38 39 39 39 39 39 39 39 39 38 38 39 38 39 39 39 39 39 37 36 35 34 34 35 35 35 34 34 34 35 36 34 30 31 34 33 33 34 35 35 37 37 38 38 39 40 40
39 39 39 41 41 41 41 42 43 43 43 39 37 37 39 39 39 44 45 46 45 43 42 43 44 45 45 45 44 42 41 40 39 37 38 39 39 39 39 38 37 37 38 39 39 39 40 39 38 38 38 39 38 38 38 36 36 36 36 36 36 34 32 31 30 32 32 34 35 32 32 32 34 33 33 34 35 35 36 37 37 39 39 40 40
39 40 40 40 38 39 41 41 43 41 41 39 37 37 38 38 41 43 43 42 41 40 39 40 41 43 44 43 42 41 41 41 39 37 38 39 40 40 38 37 36 36 36 36 37 36 36 36 36 36 35 35 35 36 36 36 37 36 35 34 32 32 31 31 31 31 31 33 34 34 33 32 34 33 32 33 34 35 35 36 39 38 39 39 39
41 40 40 39 37 38 40 41 42 42 40 37 37 38 38 39 41 42 42 41 39 38 37 37 38 39 43 45 43 40 39 39 36 36 37 39 39 38 36 34 33 32 31 33 35 36 35 35 35 34 34 34 35 35 36 36 36 37 35 32 33 32 32 32 31 31 32 33 33 36 34 31 33 33 32 33 33 36 36 36 38 39 38 37 37
41 41 40 38 36 35 36 38 41 36 35 37 38 38 38 39 41 41 41 39 38 36 36 35 36 36 36 39 40 39 38 38 35 35 35 37 37 36 35 34 32 31 31 33 34 34 34 34 33 35 35 34 35 35 36 35 35 35 36 35 34 33 32 32 32 32 31 31 34 37 31 31 32 32 33 31 30 31 34 37 38 34 34 36 39